| time (UTC) | temp C | wind direction | speed KPH | gust KPH | rain 1hr cm | rain 24hr cm | rain mn cm | humidity % | barometer mb |
| 20260507093030 | 12 | 334 | 0.0 | 0.0 | 0.00 | 0.00 | 0.33 | 100 | 1010.7 |
| 20260507091532 | 12 | 335 | 0.0 | 0.0 | 0.00 | 0.00 | 0.33 | 100 | 1010.9 |
| 20260507090021 | 12 | 334 | 0.0 | 0.0 | 0.00 | 0.00 | 0.33 | 100 | 1010.9 |
| 20260507084520 | 12 | 334 | 0.0 | 0.0 | 0.00 | 0.00 | 0.33 | 100 | 1010.4 |
| 20260507083013 | 12 | 334 | 1.6 | 0.0 | 0.00 | 0.00 | 0.33 | 100 | 1010.3 |
| 20260507081509 | 12 | 355 | 1.6 | 0.0 | 0.00 | 0.00 | 0.33 | 100 | 1010.0 |
| 20260507080005 | 12 | 342 | 4.8 | 0.0 | 0.00 | 0.00 | 0.33 | 100 | 1009.9 |
| 20260507074604 | 12 | 355 | 4.8 | 0.0 | 0.00 | 0.00 | 0.33 | 100 | 1009.9 |
| 20260507073107 | 12 | 9 | 6.4 | 0.0 | 0.00 | 0.00 | 0.33 | 100 | 1009.8 |
| 20260507071552 | 12 | 338 | 8.0 | 0.0 | 0.00 | 0.00 | 0.33 | 100 | 1009.7 |
| 20260507070056 | 13 | 341 | 6.4 | 0.0 | 0.00 | 0.00 | 0.33 | 100 | 1009.7 |
| 20260507064549 | 13 | 355 | 3.2 | 0.0 | 0.00 | 0.00 | 0.33 | 100 | 1009.8 |
| 20260507063038 | 13 | 346 | 6.4 | 0.0 | 0.00 | 0.00 | 0.33 | 100 | 1009.7 |
| 20260507061537 | 13 | 26 | 6.4 | 0.0 | 0.00 | 0.00 | 0.33 | 100 | 1009.5 |
| 20260507060029 | 14 | 344 | 4.8 | 0.0 | 0.00 | 0.00 | 0.33 | 100 | 1009.8 |
| 20260507054525 | 15 | 318 | 4.8 | 0.0 | 0.00 | 0.00 | 0.33 | 100 | 1009.9 |
| 20260507053021 | 15 | 323 | 6.4 | 0.0 | 0.00 | 0.00 | 0.30 | 100 | 1009.8 |
| 20260507051517 | 15 | 309 | 4.8 | 0.0 | 0.00 | 0.00 | 0.28 | 100 | 1009.9 |
| 20260507050021 | 16 | 311 | 6.4 | 0.0 | 0.00 | 0.00 | 0.10 | 100 | 1010.0 |
| 20260507044507 | 16 | 284 | 8.0 | 0.0 | 0.00 | 0.00 | 0.00 | 100 | 1009.9 |
| 20260507043003 | 16 | 309 | 8.0 | 0.0 | 0.00 | 0.00 | 0.00 | 100 | 1009.8 |
| 20260507041559 | 17 | 340 | 8.0 | 0.0 | 0.00 | 0.00 | 0.00 | 6 | 1009.8 |
| 20260507034556 | 17 | 355 | 6.4 | 0.0 | 0.00 | 0.00 | 0.28 | 12 | 1009.2 |
| 20260507033100 | 17 | 296 | 6.4 | 0.0 | 0.00 | 0.00 | 0.28 | 9 | 1009.3 |
| 20260507031556 | 17 | 355 | 6.4 | 0.0 | 0.00 | 0.00 | 0.28 | 100 | 1009.2 |
| 20260507030100 | 18 | 329 | 6.4 | 0.0 | 0.00 | 0.00 | 0.28 | 100 | 1009.1 |
| 20260507024548 | 18 | 13 | 8.0 | 0.0 | 0.00 | 0.00 | 0.28 | 100 | 1008.6 |
| 20260507023031 | 19 | 296 | 8.0 | 0.0 | 0.00 | 0.00 | 0.28 | 100 | 1008.7 |
| 20260507021526 | 19 | 322 | 6.4 | 0.0 | 0.00 | 0.00 | 0.28 | 100 | 1008.1 |
| 20260507020024 | 19 | 348 | 8.0 | 0.0 | 0.00 | 0.00 | 0.28 | 100 | 1008.2 |
| 20260507014521 | 19 | 265 | 3.2 | 0.0 | 0.00 | 0.00 | 0.28 | 100 | 1008.3 |
| 20260507013016 | 19 | 275 | 1.6 | 0.0 | 0.00 | 0.00 | 0.28 | 100 | 1008.7 |
| 20260507011524 | 20 | 338 | 1.6 | 0.0 | 0.00 | 0.00 | 0.28 | 100 | 1008.6 |
| 20260507010004 | 20 | 215 | 0.0 | 0.0 | 0.00 | 0.00 | 0.28 | 100 | 1008.3 |
| 20260507004600 | 20 | 211 | 0.0 | 0.0 | 0.00 | 0.00 | 0.28 | 100 | 1008.2 |
| 20260507003101 | 20 | 209 | 1.6 | 0.0 | 0.00 | 0.00 | 0.28 | 100 | 1007.9 |
| 20260507001552 | 20 | 205 | 1.6 | 0.0 | 0.00 | 0.00 | 0.28 | 100 | 1007.7 |
| 20260507000049 | 20 | 190 | 1.6 | 0.0 | 0.00 | 0.00 | 0.28 | 100 | 1007.8 |
| 20260506234552 | 20 | 107 | 0.0 | 0.0 | 0.00 | 0.00 | 0.28 | 100 | 1007.6 |
| 20260506233047 | 20 | 196 | 1.6 | 0.0 | 0.00 | 0.00 | 0.28 | 100 | 1007.6 |
| 20260506231535 | 20 | 200 | 1.6 | 0.0 | 0.00 | 0.00 | 0.28 | 100 | 1007.0 |
| 20260506230029 | 21 | 162 | 1.6 | 0.0 | 0.00 | 0.00 | 0.28 | 100 | 1007.1 |
| 20260506224526 | 21 | 198 | 1.6 | 0.0 | 0.00 | 0.00 | 0.28 | 100 | 1006.9 |
| 20260506223021 | 20 | 177 | 3.2 | 0.0 | 0.00 | 0.00 | 0.28 | 100 | 1007.0 |
| 20260506221516 | 20 | 200 | 6.4 | 0.0 | 0.00 | 0.00 | 0.28 | 100 | 1007.0 |
| 20260506220012 | 21 | 208 | 3.2 | 0.0 | 0.00 | 0.00 | 0.28 | 100 | 1007.1 |
| 20260506214507 | 21 | 183 | 6.4 | 0.0 | 0.00 | 0.00 | 0.28 | 100 | 1007.0 |
| 20260506213003 | 21 | 192 | 3.2 | 0.0 | 0.00 | 0.00 | 0.28 | 100 | 1006.8 |
| 20260506211559 | 21 | 225 | 3.2 | 0.0 | 0.00 | 0.00 | 0.28 | 100 | 1006.8 |
| 20260506210054 | 21 | 201 | 4.8 | 0.0 | 0.00 | 0.00 | 0.28 | 100 | 1006.7 |
| 20260506204551 | 20 | 208 | 3.2 | 0.0 | 0.00 | 0.00 | 0.28 | 100 | 1006.6 |
| 20260506203046 | 20 | 213 | 4.8 | 0.0 | 0.00 | 0.00 | 0.28 | 100 | 1006.6 |
| 20260506201542 | 20 | 192 | 8.0 | 0.0 | 0.00 | 0.00 | 0.28 | 100 | 1006.6 |
| 20260506200040 | 21 | 200 | 4.8 | 0.0 | 0.00 | 0.00 | 0.28 | 100 | 1006.7 |
| 20260506194533 | 21 | 217 | 6.4 | 0.0 | 0.00 | 0.00 | 0.28 | 100 | 1006.4 |
| 20260506193028 | 21 | 254 | 3.2 | 0.0 | 0.00 | 0.00 | 0.28 | 100 | 1006.6 |
| 20260506191524 | 21 | 217 | 8.0 | 0.0 | 0.00 | 0.00 | 0.28 | 100 | 1006.8 |
| 20260506190020 | 20 | 216 | 6.4 | 0.0 | 0.00 | 0.00 | 0.28 | 100 | 1006.9 |
| 20260506184515 | 19 | 227 | 6.4 | 0.0 | 0.00 | 0.00 | 0.28 | 100 | 1007.2 |
| 20260506183012 | 18 | 254 | 8.0 | 0.0 | 0.00 | 0.00 | 0.28 | 100 | 1007.3 |
| 20260506181506 | 18 | 213 | 9.7 | 0.0 | 0.00 | 0.00 | 0.28 | 100 | 1007.4 |
| 20260506180002 | 17 | 235 | 6.4 | 0.0 | 0.00 | 0.00 | 0.28 | 100 | 1007.6 |
| 20260506174558 | 17 | 199 | 8.0 | 0.0 | 0.00 | 0.00 | 0.28 | 100 | 1007.8 |
| 20260506173124 | 17 | 216 | 8.0 | 0.0 | 0.00 | 0.00 | 0.28 | 100 | 1007.7 |
| 20260506171549 | 17 | 229 | 8.0 | 0.0 | 0.00 | 0.00 | 0.28 | 100 | 1007.7 |
| 20260506170046 | 17 | 199 | 8.0 | 0.0 | 0.00 | 0.00 | 0.28 | 100 | 1007.7 |
| 20260506164541 | 16 | 196 | 8.0 | 0.0 | 0.00 | 0.00 | 0.28 | 100 | 1007.9 |
| 20260506163038 | 16 | 217 | 11.3 | 0.0 | 0.00 | 0.00 | 0.28 | 100 | 1008.2 |
| 20260506161532 | 16 | 190 | 9.7 | 0.0 | 0.00 | 0.00 | 0.28 | 100 | 1008.1 |
| 20260506160028 | 16 | 200 | 8.0 | 0.0 | 0.00 | 0.00 | 0.28 | 100 | 1008.1 |
| 20260506154523 | 16 | 174 | 8.0 | 0.0 | 0.00 | 0.00 | 0.25 | 100 | 1008.2 |
| 20260506153018 | 16 | 202 | 6.4 | 0.0 | 0.00 | 0.00 | 0.25 | 100 | 1008.2 |
| 20260506151513 | 16 | 121 | 6.4 | 0.0 | 0.00 | 0.00 | 0.25 | 100 | 1008.4 |
| 20260506150010 | 16 | 175 | 8.0 | 0.0 | 0.00 | 0.00 | 0.25 | 100 | 1008.8 |
| 20260506144505 | 16 | 198 | 8.0 | 0.0 | 0.00 | 0.00 | 0.25 | 100 | 1009.2 |
| 20260506143002 | 16 | 197 | 4.8 | 0.0 | 0.00 | 0.00 | 0.23 | 100 | 1009.1 |
| 20260506141557 | 16 | 190 | 4.8 | 0.0 | 0.00 | 0.00 | 0.20 | 100 | 1009.2 |
| 20260506140053 | 17 | 209 | 4.8 | 0.0 | 0.00 | 0.00 | 0.15 | 100 | 1009.1 |
| 20260506134548 | 17 | 171 | 4.8 | 0.0 | 0.00 | 0.00 | 0.13 | 100 | 1009.2 |
| 20260506133044 | 17 | 207 | 6.4 | 0.0 | 0.00 | 0.00 | 0.05 | 100 | 1009.6 |
| 20260506131548 | 17 | 190 | 6.4 | 0.0 | 0.00 | 0.00 | 0.05 | 100 | 1009.1 |
| 20260506130051 | 17 | 206 | 6.4 | 0.0 | 0.00 | 0.00 | 0.03 | 100 | 1008.9 |
| 20260506124530 | 18 | 180 | 6.4 | 0.0 | 0.00 | 0.00 | 0.00 | 100 | 1008.7 |
| 20260506123026 | 18 | 192 | 6.4 | 0.0 | 0.00 | 0.00 | 0.00 | 100 | 1008.8 |
| 20260506121522 | 18 | 223 | 4.8 | 0.0 | 0.00 | 0.00 | 0.00 | 100 | 1009.3 |
| 20260506120020 | 18 | 203 | 9.7 | 0.0 | 0.00 | 0.00 | 0.00 | 9 | 1009.3 |
| 20260506114516 | 18 | 199 | 8.0 | 0.0 | 0.00 | 0.00 | 0.00 | 20 | 1009.1 |
| 20260506113013 | 18 | 165 | 8.0 | 0.0 | 0.00 | 0.00 | 0.00 | 24 | 1008.9 |
| 20260506111511 | 18 | 234 | 9.7 | 0.0 | 0.00 | 0.00 | 0.00 | 23 | 1008.6 |
| 20260506110009 | 18 | 231 | 9.7 | 0.0 | 0.00 | 0.00 | 0.00 | 24 | 1008.5 |
| 20260506104506 | 18 | 159 | 9.7 | 0.0 | 0.00 | 0.00 | 0.00 | 25 | 1008.4 |
| 20260506103003 | 18 | 156 | 9.7 | 0.0 | 0.00 | 0.00 | 0.00 | 26 | 1008.2 |
| 20260506101504 | 18 | 181 | 8.0 | 0.0 | 0.00 | 0.00 | 0.00 | 29 | 1008.2 |
| 20260506100119 | 18 | 180 | 6.4 | 0.0 | 0.00 | 0.00 | 0.00 | 32 | 1008.1 |
| 20260506094556 | 18 | 209 | 6.4 | 0.0 | 0.00 | 0.00 | 0.00 | 36 | 1008.3 |